RH
22 21 23 23 24 24 26 28 30 29 26 24 19 16 17 15 15 14 12 10 9 8 7 3 2 3 5 8 11 10 5 4 4 4 6 11 16 23 21 19 17 13 10 10
26 24 25 25 27 28 31 33 33 30 29 24 20 19 19 18 17 15 13 11 8 5 3 3 5 7 10 12 12 6 4 4 4 4 3 7 17 21 9 6 14 16 16 13
30 31 33 32 32 35 37 38 35 33 30 24 21 22 22 20 18 16 13 8 4 2 2 7 10 11 13 10 5 5 4 5 5 5 5 4 13 17 10 4 2 3 8 12
55 53 51 50 48 46 43 42 38 36 32 27 27 22 23 21 19 14 8 4 3 2 4 8 11 12 8 6 6 6 6 6 9 7 6 5 4 15 14 4 3 2 2 2
68 64 61 57 54 52 49 46 42 38 36 35 30 26 24 20 16 10 6 3 3 2 4 9 12 10 7 7 7 8 8 8 9 8 7 6 4 9 14 5 3 2 2 2
78 77 74 69 59 56 54 50 47 42 38 36 33 28 24 20 14 9 4 3 3 3 5 14 15 10 9 12 12 11 12 10 8 8 6 5 5 17 13 6 4 4 4 3
94 89 88 80 63 61 60 57 53 46 42 41 36 30 26 18 14 8 4 3 3 3 6 16 15 16 18 15 12 10 7 8 7 7 6 8 19 20 9 7 10 15 21 23
97 89 82 76 69 66 64 62 60 52 47 45 41 34 28 20 15 6 4 4 3 4 5 15 17 18 15 9 5 4 5 7 6 7 11 33 31 17 14 16 22 33 45 53
99 89 82 80 80 73 68 65 66 62 55 52 50 44 30 22 14 6 5 4 4 4 8 16 15 8 5 5 5 6 7 7 6 8 26 41 36 21 25 31 36 58 75 68
100 94 91 93 88 77 68 68 67 67 63 59 56 51 33 23 15 6 6 4 3 4 7 9 8 7 6 7 8 8 9 12 10 13 40 45 34 25 28 39 46 45 62 79
99 97 91 94 93 90 80 70 73 77 77 70 56 46 40 27 19 8 6 5 6 5 7 9 10 8 7 9 11 14 19 16 15 18 51 40 32 31 39 41 48 55 70 75
100 94 93 97 98 93 85 80 87 90 79 72 57 44 42 31 25 11 7 7 7 6 6 9 9 8 8 8 16 21 21 18 15 25 52 48 35 40 46 58 61 62 67 91
98 89 97 97 97 91 90 99 96 86 77 67 65 54 55 39 28 18 9 9 8 7 7 9 10 9 10 6 17 21 22 19 16 18 56 48 48 48 61 68 67 70 82 93
99 96 97 100 99 98 97 99 92 84 72 75 60 72 61 43 34 23 13 12 9 8 8 9 9 11 12 11 15 22 24 20 17 19 60 56 42 55 53 49 74 76 82 97
98 98 100 100 97 96 96 97 90 78 74 67 74 65 70 52 36 28 19 16 10 8 8 8 10 11 12 13 15 18 25 20 18 18 63 58 44 51 50 63 100 99 74 97
98 98 99 99 98 98 92 88 83 86 76 68 74 68 70 53 41 31 23 20 11 9 11 10 12 9 9 13 15 17 24 21 20 18 62 61 58 57 49 66 99 100 87 88
100 100 99 97 100 94 69 87 93 75 70 70 66 78 66 54 44 36 30 22 12 11 11 11 6 3 5 13 17 18 24 19 20 18 62 62 66 71 60 64 73 80 70 78
100 100 99 96 100 82 77 100 94 78 71 65 66 67 57 58 51 41 32 25 14 12 11 7 1 2 4 14 20 23 24 19 19 14 60 76 78 55 53 59 73 88 81 66
100 100 100 100 99 85 85 100 87 81 80 66 63 65 62 63 58 46 36 27 14 12 10 1 1 1 4 16 23 29 23 26 17 14 70 81 72 67 62 66 85 86 98 92
100 100 100 100 92 82 100 95 81 75 67 62 52 54 64 64 59 53 42 30 14 11 5 1 1 1 3 16 25 23 27 32 22 17 72 78 70 68 72 67 74 80 95 97
100 100 98 100 86 78 100 84 76 66 73 53 55 58 74 65 59 54 41 30 14 11 2 1 1 1 4 11 17 22 32 34 32 26 77 78 74 70 70 75 79 76 95 89
93 100 96 96 86 93 92 80 71 54 49 44 48 50 70 62 65 53 41 30 12 9 1 1 1 1 4 12 22 31 32 31 35 17 81 85 80 82 86 86 89 82 94 94
38 84 98 91 97 92 94 82 58 37 35 37 47 70 65 65 66 50 40 30 11 8 1 1 1 1 2 6 11 17 22 24 32 29 47 88 75 46 59 92 93 94 86 83
22 32 74 80 82 62 57 70 58 34 40 57 65 56 71 75 63 48 40 30 9 8 1 1 1 1 1 5 9 11 13 18 27 27 19 19 25 17 12 13 35 35 18 9
17 21 39 50 39 28 35 49 46 32 31 44 38 64 72 70 65 47 48 38 9 7 1 1 1 1 1 2 3 3 3 4 13 18 14 8 5 6 8 10 12 16 17 17
13 15 18 18 16 18 22 40 48 46 31 48 78 86 77 74 66 59 52 44 10 7 2 1 1 1 1 1 2 3 3 3 3 5 6 7 8 8 10 11 15 17 18 19
Wind_Speed
28 27 26 26 26 26 27 27 26 26 26 25 25 22 28 23 24 26 30 32 35 40 46 54 56 42 32 30 31 34 38 40 41 43 45 49 49 53 59 61 63 65 66 69
28 27 28 28 28 28 28 27 26 26 27 26 25 22 26 26 27 28 29 31 36 41 49 47 38 31 31 34 39 40 39 39 42 44 43 45 48 52 50 58 66 68 69 70
30 29 29 30 30 30 30 28 26 26 27 26 24 22 23 25 26 27 28 32 37 43 43 36 36 38 38 41 38 36 38 42 45 48 48 49 49 51 50 48 52 59 67 74
30 28 28 28 29 29 30 28 26 26 27 26 25 24 20 23 23 25 27 32 38 41 38 37 40 39 41 39 38 39 42 44 50 52 53 54 52 53 53 50 49 53 59 62
29 28 29 29 29 29 28 28 26 25 25 25 24 26 19 22 23 24 27 33 38 41 39 37 39 39 39 39 39 40 46 50 53 55 56 56 56 55 55 52 51 55 59 64
32 30 30 30 30 29 28 29 28 26 25 26 24 25 20 23 22 25 28 33 38 39 37 35 37 38 37 39 43 47 51 55 55 55 55 56 55 57 55 53 55 58 63 69
33 32 32 31 31 30 29 28 28 28 24 25 22 24 22 24 23 24 27 32 36 36 38 35 36 35 39 43 48 52 54 55 55 55 53 53 55 57 52 55 55 60 64 64
35 32 31 29 28 30 30 29 27 29 25 23 21 22 22 24 24 23 27 31 32 35 35 34 35 40 45 47 50 51 51 49 52 52 51 50 55 51 52 58 60 63 66 67
31 33 30 29 29 30 28 28 28 28 27 26 23 20 21 24 23 23 26 29 30 33 34 35 39 41 45 46 49 50 49 50 51 51 48 50 53 48 54 61 67 72 67 63
33 34 32 31 31 31 30 29 28 27 30 27 25 20 19 24 21 22 24 29 31 33 34 37 41 45 47 48 50 50 49 50 49 45 45 50 46 49 56 63 64 58 47 50
37 37 34 35 34 31 31 29 28 29 29 30 26 18 21 25 22 22 25 28 30 33 34 40 44 48 48 51 48 47 48 49 46 42 43 47 43 47 52 56 56 47 44 45
40 41 40 37 35 35 33 30 31 30 29 28 26 18 22 25 23 21 24 28 30 33 36 41 45 48 50 49 45 45 47 46 44 39 41 44 39 48 51 55 52 44 42 40
39 43 38 34 34 31 30 30 30 29 30 26 28 19 23 29 23 24 24 27 30 34 37 43 47 46 48 45 43 45 45 43 42 41 38 43 42 48 50 50 51 43 40 37
38 38 35 33 34 33 30 29 30 30 28 29 25 27 20 28 27 25 26 28 31 34 37 43 46 45 47 46 43 44 45 42 41 39 36 40 39 41 42 42 48 40 37 29
38 38 37 35 35 34 32 30 30 28 30 33 23 28 24 24 26 26 27 29 33 34 37 42 43 45 46 45 43 43 43 40 39 38 34 37 34 37 41 44 44 36 30 22
38 38 39 37 34 33 33 32 28 26 30 30 29 21 31 23 24 23 26 29 32 34 38 41 44 45 45 44 42 39 40 38 35 35 32 31 32 35 39 43 41 38 25 21
32 37 36 36 34 34 36 26 26 25 24 26 25 24 27 24 24 24 25 28 31 33 38 43 45 47 45 41 37 35 37 35 32 32 28 26 28 32 36 40 38 43 31 18
26 34 36 36 32 35 31 23 22 25 22 22 23 23 25 23 24 26 26 27 30 33 38 43 47 48 40 35 33 31 34 30 29 30 26 25 22 30 36 39 36 37 31 23
28 31 36 37 35 35 33 24 23 25 18 24 23 23 24 24 24 27 25 27 29 33 37 41 47 47 37 30 29 29 32 27 26 28 26 23 26 26 29 32 31 32 31 26
33 31 32 35 36 36 27 24 26 25 21 22 24 23 25 24 25 26 25 25 27 31 35 39 45 46 37 27 26 30 28 24 24 26 24 20 24 21 25 26 27 34 25 20
36 32 33 31 35 34 21 24 27 23 21 24 24 24 25 25 26 25 24 23 25 29 31 36 41 40 34 25 24 26 25 22 21 22 23 22 20 23 25 24 25 32 28 20
36 30 30 34 35 30 24 27 26 25 25 25 25 25 22 23 24 24 23 22 24 26 27 31 33 31 29 25 25 25 22 19 18 19 19 21 21 22 24 23 25 26 31 33
38 32 30 28 27 30 27 30 25 25 23 22 22 24 24 22 21 25 20 22 22 23 22 25 26 28 26 22 23 23 19 16 15 17 16 16 18 21 25 27 25 28 29 32
39 35 32 32 28 26 30 30 28 26 21 21 21 24 22 19 22 22 20 21 21 20 18 19 20 22 21 19 18 18 16 14 13 12 14 13 15 19 21 24 29 31 32 33
46 40 34 34 30 30 27 30 28 26 25 22 22 23 23 21 22 21 20 22 20 18 16 15 15 16 15 16 15 16 18 17 13 13 15 18 19 21 23 23 24 25 26 26
48 43 39 35 32 31 29 29 29 27 24 21 24 24 24 23 20 21 21 23 20 18 14 15 12 13 12 12 13 14 15 15 15 14 13 13 14 14 14 15 16 17 18 19
Wind_Direction
238 242 247 251 256 261 263 264 264 264 263 262 262 261 269 280 276 280 288 293 300 304 305 306 308 309 304 299 297 296 299 300 298 292 288 282 280 283 275 267 267 265 263 261
241 246 249 253 259 262 263 263 263 263 265 263 263 265 269 276 285 289 295 300 303 306 308 311 309 303 301 301 301 301 298 302 306 306 302 292 284 293 286 270 263 261 261 261
247 249 253 256 259 261 261 260 260 264 266 264 263 264 270 277 285 292 297 300 305 310 313 306 302 302 303 302 299 301 303 306 310 311 311 306 297 299 296 281 271 267 264 262
247 251 254 258 259 259 260 260 260 264 266 268 270 277 273 280 286 293 298 305 311 314 311 305 305 306 302 302 303 305 306 308 310 308 308 309 305 301 300 289 280 273 267 264
250 253 256 258 260 259 257 258 260 263 269 274 275 280 287 283 292 295 302 310 315 316 312 308 309 306 306 307 305 309 309 308 307 306 307 307 307 302 299 291 281 278 274 271
250 255 256 257 257 256 256 258 261 262 268 273 276 280 291 287 293 302 310 315 319 318 315 309 308 310 309 312 312 310 309 307 305 306 305 306 305 303 298 290 286 283 280 277
250 251 252 252 252 254 256 259 266 266 268 275 274 280 286 288 298 307 317 317 320 320 322 312 313 313 314 313 312 311 309 307 308 305 301 303 305 302 297 294 292 292 292 292
242 245 247 248 250 253 255 259 263 267 269 270 273 281 283 288 301 308 316 316 321 319 321 313 310 312 312 311 311 311 312 312 311 307 306 308 309 304 304 301 299 298 297 290
238 242 242 245 248 252 255 257 259 267 271 273 276 282 285 288 300 305 315 316 319 317 316 313 313 312 313 314 313 315 314 312 312 309 311 312 312 308 309 308 306 302 298 292
237 241 241 242 243 248 253 254 259 265 272 275 283 283 283 285 294 309 316 312 314 316 318 317 317 319 319 318 318 317 316 316 314 314 315 315 317 312 312 309 309 307 302 297
238 239 238 243 246 244 249 253 258 262 268 277 282 278 279 282 290 309 317 317 317 318 316 317 319 322 322 320 321 319 319 321 319 317 318 320 318 318 319 324 320 318 310 305
245 244 244 245 243 242 245 250 255 261 267 272 278 283 282 279 292 306 313 319 319 318 317 316 320 323 322 321 323 323 325 326 324 321 322 322 322 321 324 329 332 325 320 320
245 245 245 241 244 246 248 252 257 263 268 272 276 288 279 284 294 302 308 318 322 317 317 315 318 322 323 325 327 327 328 328 329 327 323 327 327 324 323 329 339 334 328 327
243 238 239 245 245 242 249 254 261 266 270 276 279 276 284 287 297 297 304 317 318 320 317 314 318 322 324 327 328 328 329 331 334 332 326 329 328 335 337 337 339 344 336 336
233 236 242 243 244 248 253 258 261 269 275 277 280 272 281 279 287 294 304 314 317 318 318 316 320 322 321 320 322 325 330 331 335 337 329 329 333 336 340 340 344 342 344 341
235 237 235 237 242 247 253 255 261 269 272 275 276 278 279 286 287 297 301 311 316 319 323 322 324 324 320 321 321 323 329 331 334 337 331 337 343 346 349 348 345 351 347 346
236 235 236 236 242 248 252 258 261 262 272 275 276 278 280 286 290 298 303 311 317 323 324 326 327 325 323 322 323 327 330 332 334 338 335 345 359 1 359 356 355 8 9 358
226 231 234 235 238 245 256 259 258 266 270 275 275 279 283 287 292 296 307 313 320 322 326 329 330 327 327 326 327 330 332 332 335 342 343 347 347 350 357 358 5 10 19 21
229 228 231 236 239 245 253 258 259 261 263 272 277 279 285 287 289 295 306 312 319 320 328 332 333 332 332 331 329 333 332 333 339 345 349 351 350 348 360 5 8 356 11 19
230 233 230 235 241 246 249 254 257 262 264 270 277 281 280 285 284 289 302 305 314 317 329 336 338 338 335 331 332 332 335 336 342 350 354 351 359 358 8 11 13 16 20 38
241 234 231 231 240 243 247 248 255 263 266 264 273 281 279 282 283 284 296 303 309 319 332 341 343 344 343 341 339 341 341 340 343 356 1 4 359 3 8 14 20 27 40 60
244 237 228 232 241 250 247 255 264 265 264 269 272 276 277 279 279 281 290 298 306 320 336 345 349 354 354 353 346 343 346 346 341 358 7 16 21 30 31 30 30 38 37 47
235 243 238 235 237 249 256 255 264 267 271 275 275 270 270 275 270 277 284 293 303 320 336 349 355 3 0 0 357 355 356 353 347 359 17 29 42 41 45 47 49 57 54 52
233 229 239 231 234 248 254 260 260 264 270 268 264 269 267 264 260 274 280 291 299 318 329 347 352 2 15 20 19 13 9 6 6 18 27 29 40 48 54 60 59 62 64 63
228 229 231 234 236 245 251 253 260 264 265 267 271 269 263 261 260 275 282 286 295 310 319 331 343 356 22 51 54 53 43 40 48 57 66 69 71 72 71 69 67 66 65 65
226 227 229 235 235 239 244 251 254 260 271 274 266 268 265 261 262 270 278 280 286 298 303 310 323 338 355 23 44 47 53 55 60 76 79 75 78 75 72 73 73 71 68 64